This is the latest recevied weather packets stored in our database for station/object N8QYG-1. If no packets are shown the sender has not sent any weather packets the latest 1 day(s).
| Time | Temp. | Humidity | Pressure | Rain* | Wind** | Luminosity | Snow |
|---|---|---|---|---|---|---|---|
| 1778019019 | 12.22° C | 5% | - | 0 mm | 2.68 m/s, 272° | - | - |
| 1778018418 | 12.22° C | 6% | - | 0 mm | 1.34 m/s, 279° | - | - |
| 1778017818 | 12.78° C | 6% | - | 0 mm | 3.13 m/s, 271° | - | - |
| 1778017218 | 12.22° C | 6% | - | 0 mm | 2.24 m/s, 265° | - | - |
| 1778016618 | 12.78° C | 6% | - | 0 mm | 3.13 m/s, 271° | - | - |
| 1778016017 | 12.22° C | 6% | - | 0 mm | 3.13 m/s, 261° | - | - |
| 1778015419 | 12.22° C | 6% | - | 0 mm | 2.68 m/s, 312° | - | - |
| 1778014819 | 12.78° C | 6% | - | 0 mm | 1.79 m/s, 315° | - | - |
| 1778014219 | 12.78° C | 6% | - | 0 mm | 0.89 m/s, 247° | - | - |
| 1778013623 | 12.78° C | 6% | - | 0 mm | 2.68 m/s, 254° | - | - |
| 1778013018 | 12.78° C | 6% | - | 0 mm | 0.89 m/s, 249° | - | - |
| 1778012418 | 12.78° C | 6% | - | 0 mm | 3.58 m/s, 246° | - | - |
| 1778011819 | 12.78° C | 6% | - | 0 mm | 0 m/s | - | - |
| 1778011220 | 12.22° C | 6% | - | 0 mm | 0.89 m/s, 231° | - | - |
| 1778010620 | 12.22° C | 6% | - | 0 mm | 2.24 m/s, 230° | - | - |
| 1778010021 | 12.22° C | 6% | - | 0 mm | 1.34 m/s, 238° | - | - |
| 1778009422 | 11.67° C | 6% | - | 0 mm | 2.68 m/s, 267° | - | - |
| 1778008819 | 11.67° C | 6% | - | 0 mm | 2.24 m/s, 232° | - | - |
| 1778008220 | 11.67° C | 6% | - | 0 mm | 0.89 m/s, 216° | - | - |
| 1778007618 | 11.67° C | 7% | - | 0 mm | 0.45 m/s, 245° | - | - |
| 1778007018 | 11.67° C | 6% | - | 0 mm | 2.24 m/s, 197° | - | - |
| 1778006418 | 11.67° C | 7% | - | 0 mm | 2.24 m/s, 221° | - | - |
| 1778005821 | 11.67° C | 6% | - | 0 mm | 2.24 m/s, 244° | - | - |
| 1778005218 | 11.67° C | 6% | - | 0 mm | 1.34 m/s, 214° | - | - |
| 1778004619 | 11.67° C | 7% | - | 0 mm | 1.34 m/s, 201° | - | - |
* Rain latest hour (hover to see other rain measurements)
** Current wind speed in m/s (hover to see current wind gust speed)